Location: Ford County Road and Bridge Department
(37.7686°N, 99.9762°W)
Time: 15:39:58
(UTC+00:00)

Cosmos 2084 Rocket - Pass Details

Date: 18 January 2020
Orbit: 570 x 611 km, 62.8° (Epoch: 23 February)

Event Time Altitude Azimuth Distance (km) Brightness Sun altitude
Rises 00:31:51 0° 327° (NNW) 2,878 7.2 -9.1°
Reaches altitude 10° 00:34:08 10° 327° (NNW) 1,970 6.3 -9.5°
Maximum altitude 00:38:36 86° 56° (NE) 616 3.5 -10.3°
Drops below altitude 10° 00:43:02 10° 146° (SSE) 1,951 6.0 -11.2°
Sets 00:45:17 0° 147° (SSE) 2,846 6.8 -11.6°
